sat.trackr.live / text

‹ back to catalog

ONEWEB-0123

NORAD 47269 · 2020-100M

PAYLOAD ACTIVE UNKNOWN

§ Identity

Operator
Country
UK
Launch date
2020-12-18
Launch site
VOSTO
Launch vehicle
Mass (kg)
RCS (m²)

Purposes: comms

External: N2YO · Heavens-Above · Gunter

§ Orbital elements

Epoch: 2026-09-08T23:47:42.612288Z

Period
109.72 min
Inclination
87.8989°
Eccentricity
0.0001848
Mean motion
13.12441884 rev/d
Perigee alt
1,212.3 km
Apogee alt
1,215.1 km
Semi-major
7,591.9 km
B*
1.1647e-3
RAAN
334.0250°
Arg perigee
103.1556°
Mean anomaly
256.9778°
Rev number
27,568

§ Raw data

ONEWEB-01231 47269U 20100M   26251.99146542  .00000432  00000+0  11647-2 0  99962 47269  87.8989 334.0250 0001848 103.1556 256.9778 13.12441884275686

JSON: /api/v1/satellites/47269 · /tle

For live sub-satellite position, see the globe view (requires WebGL).

§ Visibility from observer

Set your observer location to see the next 7 days of passes ≥ 10°. The values pass through the URL so the page stays shareable.

No JS? Fill the form by hand. The geolocation button needs JavaScript.